Location: Trebic
(49.2170°N, 15.8830°E)
Time: 21:03:21
(UTC+02:00)

Courier 1B Rocket - Pass Details

Date: 23 August 2019
Orbit: 920 x 1202 km, 28.2° (Epoch: 17 October)

Event Time Altitude Azimuth Distance (km) Brightness Sun altitude
Rises 07:13:10 0° 241° (WSW) 4,045 7.7 11.0°
Reaches altitude 10° 07:18:03 10° 214° (SW) 3,114 7.3 11.8°
Maximum altitude 07:21:00 13° 192° (SSW) 2,933 7.4 12.2°
Drops below altitude 10° 07:23:58 10° 169° (S) 3,126 7.8 12.7°
Sets 07:28:55 0° 142° (SE) 4,078 8.8 13.5°
